Find Starlink 32686

NORAD ID: 62192 Int'l Des: 2024-229 Owner: SPXS Country: US Constellation: starlink operational
LEOCIRCULAR

Current View

Loading 3D Globe...

About Starlink 32686

Starlink 32686 (NORAD 62192) is a starlink constellation satellite (v2 mini) launched Dec 4, 2024 by SPXS of US. It operates in LEO, CIRCULAR orbit with a mass of 730.00 kg.

Upcoming Passes

Passes for default location (London). Set your location on the main map for personalized predictions.

Altitude History

Loading altitude history...

Two-Line Element Set

1 62192U 24229A 26252.16604029 .00018274 00000-0 67201-3 0 9995
2 62192 42.9995 310.9188 0001199 223.4713 136.6044 15.27575642 98669
Epoch: Sep 9, 2026 • Age: 10 hours

Current Status

Altitude 483.9 km
Apogee / Perigee N/A
Velocity 7.63 km/s
Sub-Earth Point 26.42°N, 148.38°E
Launch Date Dec 4, 2024
Age 1.7 years
Type internet

Technical Details

Classification Payload
Mass 730.00 kg
Dry Mass 700.00 kg
Total Mass 730.00 kg
Length 0.30 m
Diameter 4.10 m
Span 29.00 m
Shape Box + pan
Manufacturer SPXS
Bus Type Starlink V2M
Phase Status In Orbit
Owner/State SPXS/US

Most Searched